sat.trackr.live / text

‹ back to catalog

STARLINK-4319

NORAD 53084 · 2022-077AT

PAYLOAD ACTIVE UNKNOWN

§ Identity

Operator
Country
US
Launch date
2022-07-11
Launch site
AFWTR
Launch vehicle
Mass (kg)
RCS (m²)

Purposes: comms

External: N2YO · Heavens-Above · Gunter

§ Orbital elements

Epoch: 2026-05-24T23:29:34.094112Z

Period
95.64 min
Inclination
97.4484°
Eccentricity
0.0001942
Mean motion
15.05655534 rev/d
Perigee alt
548.1 km
Apogee alt
550.8 km
Semi-major
6,927.6 km
B*
-1.0503e-5
RAAN
326.0258°
Arg perigee
125.5818°
Mean anomaly
234.5590°
Rev number
21,246

§ Raw data

STARLINK-43191 53084U 22077AT  26144.97886683 -.00000210  00000+0 -10503-4 0  99972 53084  97.4484 326.0258 0001942 125.5818 234.5590 15.05655534212462

JSON: /api/v1/satellites/53084 · /tle

For live sub-satellite position, see the globe view (requires WebGL).

§ Visibility from observer

Set your observer location to see the next 7 days of passes ≥ 10°. The values pass through the URL so the page stays shareable.

No JS? Fill the form by hand. The geolocation button needs JavaScript.